KA9EES Weather Reports


Display with metric or nautical units.
time (UTC)temp
F
wind
direction
speed
MPH
gust
MPH
rain 1hr
in
rain 24hr
in
rain mn
in
humidity
%
barometer
mb
20260510130003 56 339 2.0 8.0 0.00 0.00 0.00 1017.2
20260510124503 55 329 3.0 7.0 0.00 0.00 0.00 1017.1
20260510124003 55 355 4.0 7.0 0.00 0.00 0.00 1017.1
20260510123504 54 352 3.0 7.0 0.00 0.00 0.00 1017.0
20260510122003 53 334 5.0 9.0 0.00 0.00 0.00 1016.0
20260510121504 53 344 4.0 9.0 0.00 0.00 0.00 1016.6
20260510121003 53 348 6.0 9.0 0.00 0.00 0.00 1016.5
20260510120503 52 333 2.0 8.0 0.00 0.00 0.00 1016.3
20260510120004 52 341 2.0 8.0 0.00 0.00 0.00 1016.2
20260510115504 52 340 3.0 8.0 0.00 0.00 0.00 1016.0
20260510114503 52 335 2.0 7.0 0.00 0.00 0.00 1015.9
20260510114004 52 342 3.0 7.0 0.00 0.00 0.00 1015.8
20260510113504 52 344 3.0 7.0 0.00 0.00 0.00 1015.7
20260510113003 52 338 2.0 8.0 0.00 0.00 0.00 1015.6
20260510112504 52 338 3.0 8.0 0.00 0.00 0.00 1015.5
20260510111503 52 345 2.0 5.0 0.00 0.00 0.00 1015.5
20260510111004 52 329 2.0 5.0 0.00 0.00 0.00 1015.2
20260510110504 52 331 2.0 5.0 0.00 0.00 0.00 1015.0
20260510110003 52 341 2.0 5.0 0.00 0.00 0.00 1014.8
20260510105503 52 337 2.0 5.0 0.00 0.00 0.00 1014.8
20260510105004 52 342 2.0 5.0 0.00 0.00 0.00 1014.7
20260510104503 52 340 1.0 6.0 0.00 0.00 0.00 1014.4
20260510104004 52 348 1.0 6.0 0.00 0.00 0.00 1014.4
20260510103504 52 334 2.0 6.0 0.00 0.00 0.00 1014.3
20260510103003 52 348 2.0 6.0 0.00 0.00 0.00 1014.0
20260510102504 52 344 2.0 6.0 0.00 0.00 0.00 1013.8
20260510101004 53 336 2.0 6.0 0.00 0.00 0.00 1013.5
20260510100503 53 350 3.0 6.0 0.00 0.00 0.00 1013.5
20260510100004 53 345 1.0 3.0 0.00 0.00 0.00 1013.6
20260510095003 54 344 1.0 3.0 0.00 0.00 0.00 1013.5
20260510094504 54 334 1.0 3.0 0.00 0.00 0.00 1013.5
20260510094004 54 341 1.0 3.0 0.00 0.00 0.00 1013.4
20260510093004 54 359 1.0 2.0 0.00 0.00 0.00 1013.0
20260510092503 55 337 1.0 3.0 0.00 0.00 0.00 1013.1
20260510092003 55 1 2.0 3.0 0.00 0.00 0.00 1013.0
20260510091003 56 357 2.0 5.0 0.00 0.00 0.00 1013.0
20260510090503 56 350 2.0 3.0 0.00 0.00 0.00 1012.9
20260510090004 56 333 1.0 5.0 0.00 0.00 0.00 1012.9
20260510085503 56 332 1.0 5.0 0.00 0.00 0.00 1012.9
20260510085004 57 339 2.0 3.0 0.00 0.00 0.00 1012.8
20260510083504 58 292 1.0 3.0 0.00 0.00 0.00 1012.9
20260510083004 58 355 2.0 3.0 0.00 0.00 0.00 1012.8
20260510082004 58 355 2.0 3.0 0.00 0.00 0.00 1012.8
20260510081503 58 358 2.0 5.0 0.00 0.00 0.00 1012.6
20260510081003 58 356 2.0 5.0 0.00 0.00 0.00 1012.6
20260510080504 58 344 2.0 5.0 0.00 0.00 0.00 1012.6
20260510080004 58 348 1.0 5.0 0.00 0.00 0.00 1012.6
20260510075503 58 350 2.0 5.0 0.00 0.00 0.00 1012.4
20260510075004 58 348 2.0 5.0 0.00 0.00 0.00 1012.3
20260510073004 59 17 2.0 6.0 0.00 0.00 0.00 1012.3
20260510072504 59 9 2.0 6.0 0.00 0.00 0.00 1012.4
20260510072003 59 2 2.0 6.0 0.00 0.00 0.00 1012.4
20260510071503 59 17 2.0 5.0 0.00 0.00 0.00 1012.3
20260510071004 59 0 2.0 5.0 0.00 0.00 0.00 1012.3
20260510070004 59 6 3.0 10.0 0.00 0.00 0.00 1012.3
20260510065504 59 21 3.0 10.0 0.00 0.00 0.00 1012.2
20260510065003 59 11 3.0 8.0 0.00 0.00 0.00 1012.1
20260510064504 59 3 3.0 7.0 0.00 0.00 0.00 1012.0
20260510064004 60 9 3.0 9.0 0.00 0.00 0.00 1011.9
20260510063503 60 3 4.0 9.0 0.00 0.00 0.00 1011.9
20260510063003 60 18 5.0 8.0 0.00 0.00 0.00 1011.8
20260510062503 60 3 5.0 8.0 0.00 0.00 0.00 1011.8
20260510062004 61 10 4.0 8.0 0.00 0.00 0.00 1011.7
20260510061503 61 354 3.0 8.0 0.00 0.00 0.00 1011.6
20260510061004 61 355 3.0 6.0 0.00 0.00 0.00 1011.6
20260510060504 62 337 2.0 5.0 0.00 0.00 0.00 1011.7
20260510060003 62 304 2.0 5.0 0.00 0.00 0.00 1011.7
20260510055504 62 321 1.0 5.0 0.00 0.00 0.00 1011.6
20260510055004 62 294 2.0 5.0 0.00 0.00 0.00 1011.7
20260510054504 62 304 2.0 7.0 0.00 0.00 0.00 1011.5
20260510054004 62 291 1.0 7.0 0.00 0.00 0.00 1011.5
20260510053503 63 299 2.0 8.0 0.00 0.00 0.00 1011.4
20260510052504 63 288 2.0 6.0 0.00 0.00 0.00 1011.5
20260510052004 63 254 2.0 6.0 0.00 0.00 0.00 1011.4
20260510051503 62 273 3.0 6.0 0.00 0.00 0.00 1011.1
20260510051004 62 266 3.0 6.0 0.00 0.00 0.00 1011.0
20260510050503 62 279 2.0 6.0 0.00 0.00 0.00 1010.9
20260510050003 62 262 3.0 7.0 0.00 0.00 0.00 1011.0
20260510045504 62 266 3.0 7.0 0.00 0.00 0.00 1010.8
20260510044504 62 263 5.0 7.0 0.00 0.00 0.00 1010.9
20260510044004 62 241 3.0 6.0 0.00 0.00 0.00 1010.9
20260510043503 62 263 3.0 6.0 0.00 0.00 0.00 1010.9
20260510043004 62 243 2.0 5.0 0.00 0.00 0.00 1010.6
20260510042503 62 248 2.0 3.0 0.00 0.00 0.00 1010.6
20260510042004 62 226 2.0 3.0 0.00 0.00 0.00 1010.6
20260510041503 62 246 2.0 3.0 0.00 0.00 0.00 1010.7
20260510041003 62 239 1.0 3.0 0.00 0.00 0.00 1010.5
20260510040504 62 247 2.0 3.0 0.00 0.00 0.00 1010.4
20260510040003 62 241 1.0 2.0 0.00 0.00 0.00 1010.2
20260510035503 62 213 1.0 2.0 0.00 0.00 0.00 1010.2
20260510035004 62 140 0.0 2.0 0.00 0.00 0.00 1010.1
20260510034503 62 206 2.0 2.0 0.00 0.00 0.00 1010.3
20260510034004 63 224 0.0 2.0 0.00 0.00 0.00 1010.3
20260510033003 63 214 2.0 2.0 0.00 0.00 0.00 1010.2
20260510032504 63 150 0.0 2.0 0.00 0.00 0.00 1010.1
20260510031503 63 198 0.0 3.0 0.00 0.00 0.00 1010.1
20260510031003 63 151 1.0 3.0 0.00 0.00 0.00 1010.1
20260510030504 63 179 1.0 3.0 0.00 0.00 0.00 1010.2
20260510030003 64 123 1.0 3.0 0.00 0.00 0.00 1010.1
20260510025503 64 165 1.0 2.0 0.00 0.00 0.00 1010.1
20260510025004 64 193 2.0 2.0 0.00 0.00 0.00 1010.0
20260510024503 65 306 0.0 0.0 0.00 0.00 0.00 1009.9
20260510024003 65 306 0.0 0.0 0.00 0.00 0.00 1010.0
20260510023003 65 306 0.0 2.0 0.00 0.00 0.00 1009.7
20260510022504 65 271 0.0 2.0 0.00 0.00 0.00 1009.7
20260510022003 65 271 1.0 2.0 0.00 0.00 0.00 1009.8
20260510021503 65 278 0.0 1.0 0.00 0.00 0.00 1009.6
20260510021003 65 253 0.0 1.0 0.00 0.00 0.00 1009.5
20260510020503 65 275 0.0 3.0 0.00 0.00 0.00 1009.5
20260510020004 65 302 1.0 3.0 0.00 0.00 0.00 1009.4
20260510015504 66 305 0.0 0.0 0.00 0.00 0.00 1009.3
20260510015004 66 305 0.0 0.0 0.00 0.00 0.00 1009.1
20260510013504 68 305 0.0 2.0 0.00 0.00 0.00 1008.8
20260510013004 68 305 0.0 2.0 0.00 0.00 0.00 1008.7
20260510012504 68 294 0.0 1.0 0.00 0.00 0.00 1008.6
20260510011503 68 308 1.0 3.0 0.00 0.00 0.00 1008.4
20260510011003 68 327 1.0 7.0 0.00 0.00 0.00 1008.3
20260510010504 68 319 1.0 7.0 0.00 0.00 0.00 1008.2
20260510005503 68 274 2.0 5.0 0.00 0.00 0.00 1007.9
20260510004503 69 242 2.0 3.0 0.00 0.00 0.00 1007.8
20260510004004 70 245 3.0 5.0 0.00 0.00 0.00 1007.7
20260510003004 71 242 3.0 5.0 0.00 0.00 0.00 1007.6
20260510002504 72 242 3.0 5.0 0.00 0.00 0.00 1007.6
20260510002003 72 241 2.0 5.0 0.00 0.00 0.00 1007.5
20260510001504 73 250 1.0 5.0 0.00 0.00 0.00 1007.5
20260510000004 73 248 2.0 8.0 0.00 0.00 0.00 1007.4
20260509235503 73 252 5.0 8.0 0.00 0.00 0.00 1007.3
20260509235004 74 250 5.0 8.0 0.00 0.00 0.00 1007.3
20260509234504 75 256 5.0 12.0 0.00 0.00 0.00 1007.3
20260509234003 75 255 5.0 12.0 0.00 0.00 0.00 1007.4
20260509233004 75 266 6.0 12.0 0.00 0.00 0.00 1007.3
20260509232503 75 249 3.0 13.0 0.00 0.00 0.00 1007.2
20260509232004 75 264 5.0 13.0 0.00 0.00 0.00 1007.3
20260509231503 76 263 6.0 14.0 0.00 0.00 0.00 1007.3
20260509230504 77 255 5.0 12.0 0.00 0.00 0.00 1007.2
20260509230004 77 248 6.0 15.0 0.00 0.00 0.00 1007.2
20260509225503 76 256 9.0 15.0 0.00 0.00 0.00 1007.2
20260509225004 76 264 5.0 13.0 0.00 0.00 0.00 1007.2
20260509224504 76 264 7.0 13.0 0.00 0.00 0.00 1007.2
20260509224004 76 259 6.0 13.0 0.00 0.00 0.00 1007.2
20260509223504 76 254 6.0 14.0 0.00 0.00 0.00 1007.2
20260509223004 77 252 8.0 14.0 0.00 0.00 0.00 1007.1
20260509222003 77 270 8.0 20.0 0.00 0.00 0.00 1007.1
20260509221504 77 260 7.0 20.0 0.00 0.00 0.00 1007.1
20260509221004 77 264 10.0 16.0 0.00 0.00 0.00 1007.2
20260509220504 77 271 9.0 16.0 0.00 0.00 0.00 1007.2
20260509220003 77 258 10.0 16.0 0.00 0.00 0.00 1007.2
20260509215003 77 246 7.0 14.0 0.00 0.00 0.00 1007.0
20260509214503 78 271 7.0 14.0 0.00 0.00 0.00 1007.1
20260509214004 78 262 9.0 16.0 0.00 0.00 0.00 1007.0
20260509213504 78 250 7.0 16.0 0.00 0.00 0.00 1007.0
20260509213003 77 265 10.0 16.0 0.00 0.00 0.00 1007.0
20260509212504 77 272 9.0 15.0 0.00 0.00 0.00 1007.0
20260509212003 77 255 6.0 15.0 0.00 0.00 0.00 1007.0
20260509211503 77 245 10.0 15.0 0.00 0.00 0.00 1007.0
20260509210504 78 241 9.0 17.0 0.00 0.00 0.00 1006.9
20260509210003 77 234 9.0 16.0 0.00 0.00 0.00 1006.9
20260509205004 76 243 9.0 15.0 0.00 0.00 0.00 1006.8
20260509204504 77 232 8.0 15.0 0.00 0.00 0.00 1006.8
20260509203504 77 236 9.0 14.0 0.00 0.00 0.00 1007.0
20260509202503 76 236 8.0 18.0 0.00 0.01 0.00 1007.1
20260509202003 76 253 9.0 18.0 0.00 0.01 0.00 1007.1
20260509201004 76 235 10.0 20.0 0.00 0.02 0.00 1007.1
20260509200504 76 237 10.0 20.0 0.00 0.02 0.00 1007.2
20260509195504 76 250 10.0 17.0 0.00 0.02 0.00 1007.2
20260509195003 76 246 10.0 16.0 0.00 0.02 0.00 1007.2
20260509194003 75 243 8.0 18.0 0.00 0.02 0.00 1007.2
20260509193004 75 251 10.0 18.0 0.00 0.02 0.00 1007.1
20260509192503 75 231 10.0 18.0 0.00 0.02 0.00 1007.1
20260509192004 75 228 10.0 18.0 0.00 0.02 0.00 1007.0
20260509191504 74 226 9.0 21.0 0.00 0.03 0.00 1006.9
20260509191003 74 233 9.0 21.0 0.00 0.03 0.00 1007.0
20260509190504 74 221 9.0 28.0 0.00 0.03 0.00 1007.1
20260509190004 74 212 14.0 28.0 0.00 0.03 0.00 1007.1
20260509185504 74 231 9.0 23.0 0.00 0.03 0.00 1007.1
20260509185003 73 227 13.0 23.0 0.00 0.04 0.00 1007.1
20260509184504 74 206 13.0 23.0 0.00 0.05 0.00 1007.2
20260509184004 73 236 12.0 21.0 0.00 0.05 0.00 1007.2
20260509183503 73 235 10.0 20.0 0.00 0.05 0.00 1007.3
20260509183003 73 218 12.0 21.0 0.00 0.05 0.00 1007.3
20260509182505 73 227 9.0 21.0 0.00 0.05 0.00 1007.3
20260509182004 72 219 12.0 21.0 0.00 0.05 0.00 1007.2
20260509181504 72 230 9.0 18.0 0.00 0.05 0.00 1007.2
20260509181003 71 234 10.0 20.0 0.00 0.05 0.00 1007.2
20260509180504 71 208 10.0 20.0 0.00 0.05 0.00 1007.2
20260509180003 71 219 11.0 20.0 0.00 0.05 0.00 1007.3
20260509175004 70 195 14.0 21.0 0.00 0.05 0.00 1007.1
20260509174504 70 225 11.0 18.0 0.00 0.05 0.00 1007.0
20260509172503 69 194 12.0 18.0 0.00 0.05 0.00 1007.2
20260509172003 69 208 13.0 22.0 0.00 0.05 0.00 1007.2
20260509171504 68 198 10.0 22.0 0.00 0.05 0.00 1007.2
20260509171003 68 196 11.0 18.0 0.00 0.05 0.00 1007.3
20260509170504 68 193 10.0 20.0 0.00 0.05 0.00 1007.2
20260509170004 67 200 12.0 21.0 0.00 0.05 0.00 1007.3
20260509165504 67 198 14.0 21.0 0.00 0.05 0.00 1007.4
20260509165004 67 204 12.0 20.0 0.00 0.05 0.00 1007.5
20260509164504 67 206 9.0 18.0 0.00 0.05 0.00 1007.6
20260509163504 66 215 10.0 18.0 0.00 0.05 0.00 1007.8
20260509163003 66 227 9.0 15.0 0.00 0.05 0.00 1008.0
20260509162504 66 227 8.0 15.0 0.00 0.05 0.00 1008.0
20260509162003 66 238 7.0 15.0 0.00 0.05 0.00 1007.8
20260509161004 65 220 9.0 17.0 0.00 0.05 0.00 1007.7
20260509160503 65 206 12.0 17.0 0.00 0.05 0.00 1007.8
20260509160004 65 191 10.0 15.0 0.00 0.05 0.00 1007.7
20260509155504 64 219 8.0 16.0 0.00 0.05 0.00 1007.6
20260509155004 64 201 10.0 16.0 0.00 0.05 0.00 1007.7
20260509154504 64 201 7.0 12.0 0.00 0.05 0.00 1007.6
20260509154004 63 224 6.0 12.0 0.00 0.05 0.00 1007.6
20260509153504 63 230 6.0 12.0 0.00 0.05 0.00 1007.6
20260509153003 63 244 6.0 16.0 0.00 0.05 0.00 1007.6
20260509152504 63 240 7.0 16.0 0.00 0.05 0.00 1007.7
20260509152004 63 228 6.0 16.0 0.00 0.05 0.00 1007.7
20260509151503 62 220 7.0 15.0 0.00 0.05 0.00 1007.7
20260509151004 62 205 8.0 16.0 0.00 0.05 0.00 1007.7
20260509150504 61 226 7.0 16.0 0.00 0.05 0.00 1007.6
20260509150003 61 221 6.0 15.0 0.00 0.05 0.00 1007.6
20260509145503 61 234 8.0 14.0 0.00 0.05 0.00 1007.5
20260509144503 60 200 9.0 16.0 0.00 0.05 0.00 1007.5
20260509144004 59 215 10.0 16.0 0.00 0.05 0.00 1007.6
20260509143503 59 206 10.0 17.0 0.00 0.05 0.00 1007.7
20260509142503 59 200 12.0 18.0 0.00 0.05 0.00 1007.6
20260509141504 59 194 12.0 18.0 0.00 0.05 0.00 1007.6
20260509141004 59 190 12.0 17.0 0.00 0.05 0.00 1007.5
20260509140503 59 192 12.0 17.0 0.00 0.05 0.00 1007.5
20260509140004 58 192 11.0 17.0 0.00 0.05 0.00 1007.4
20260509135004 59 199 10.0 16.0 0.00 0.05 0.00 1007.4
20260509134503 59 197 11.0 16.0 0.00 0.05 0.00 1007.4
20260509133503 59 191 8.0 16.0 0.00 0.05 0.00 1007.2
20260509133004 59 197 8.0 14.0 0.00 0.05 0.00 1007.2
20260509132504 59 194 8.0 14.0 0.00 0.05 0.00 1007.2
20260509132004 58 197 8.0 13.0 0.00 0.05 0.00 1007.2
20260509131504 58 194 7.0 10.0 0.00 0.05 0.00 1007.1
20260509131003 58 196 6.0 14.0 0.00 0.05 0.00 1007.0